Iowa Falls, IA

7:36 AM CST on December 06, 2019 (GMT -0600)
Iowa Falls Municipal

Weather History for KIFA - October, 2019

Change the Weather History Date:

Wednesday, October 2, 2019

  Actual Average Record
Temperature  
Mean Temperature 56 °F -  
Max Temperature 59 °F 71 °F 93 °F (1953)
Min Temperature 53 °F 44 °F 19 °F (1974)
Degree Days  
Heating Degree Days 9    
Growing Degree Days 6 (Base 50)    
Moisture  
Dew Point 53 °F    
Average Humidity 88    
Maximum Humidity 90    
Minimum Humidity 87    
Precipitation  
Precipitation 0.53 in - - ()
Sea Level Pressure  
Sea Level Pressure 29.94 in    
Wind  
Wind Speed 8 mph ()    
Max Wind Speed 14 mph    
Max Gust Speed 21 mph    
Visibility 5.6 miles    
Events Rain    
Averages and records for this station are not official NWS values.
T = Trace of Precipitation, MM = Missing Value Source: Averaged Metar Reports

Daily Weather History Graph

Daily Weather History Graph

Search for Another Location

Airport or City:

Astronomy

Oct. 02, 2019 Rise Set
Actual Time 7:11 AM CDT 6:53 PM CDT
Civil Twilight 6:43 AM CDT 7:21 PM CDT
Nautical Twilight 6:10 AM CDT 7:53 PM CDT
Astronomical Twilight 5:37 AM CDT 8:26 PM CDT
Moon 11:42 AM CDT (10/2) 9:42 PM CDT (10/2)
Length of Visible Light 12h 38m
Length of Day
11h 42m
Waxing Crescent, 20% of the Moon is Illuminated
Oct 2
Waxing Crescent
Oct 5
First Quarter
Oct 13
Full
Oct 21
Last Quarter
Oct 27
New

Hourly Weather History & Observations

Time (CDT) Temp. Dew Point Humidity Pressure Visibility Wind Dir Wind Speed Gust Speed Precip Events Conditions
12:15 AM 58.1 °F 54.7 °F 88% 29.88 in 7.0 mi North 8.1 mph - 0.06 in Rain Heavy Rain
12:35 AM 57.6 °F 54.5 °F 90% 29.87 in 10.0 mi North 9.2 mph - 0.08 in Rain Rain
12:55 AM 57.2 °F 53.8 °F 88% 29.86 in 10.0 mi North 10.4 mph - 0.10 in Rain Rain
1:15 AM 56.7 °F 53.6 °F 89% 29.88 in 10.0 mi NNW 11.5 mph 17.3 mph N/A Rain Light Rain
1:35 AM 56.3 °F 53.1 °F 89% 29.89 in 5.0 mi NNW 11.5 mph 20.7 mph 0.01 in Rain Rain
1:55 AM 55.8 °F 52.3 °F 88% 29.89 in 10.0 mi North 9.2 mph 17.3 mph 0.02 in Rain Light Rain
2:15 AM 55.4 °F 52.2 °F 89% 29.89 in 10.0 mi North 10.4 mph 16.1 mph N/A   Overcast
2:35 AM 55.4 °F 52.0 °F 88% 29.90 in 10.0 mi North 9.2 mph - N/A   Overcast
2:55 AM 55.0 °F 51.8 °F 89% 29.89 in 10.0 mi North 11.5 mph 16.1 mph N/A   Overcast
3:15 AM 54.9 °F 51.8 °F 89% 29.90 in 10.0 mi North 9.2 mph - N/A   Overcast
3:35 AM 54.9 °F 51.8 °F 89% 29.90 in 7.0 mi North 6.9 mph 17.3 mph N/A   Overcast
3:55 AM 54.9 °F 51.4 °F 88% 29.92 in 10.0 mi NNW 10.4 mph - N/A   Overcast
4:15 AM 54.9 °F 51.6 °F 89% 29.93 in 4.0 mi North 8.1 mph - N/A   Overcast
4:35 AM 54.7 °F 51.3 °F 88% 29.93 in 5.0 mi North 8.1 mph - N/A   Overcast
4:55 AM 54.7 °F 51.3 °F 88% 29.94 in 10.0 mi North 8.1 mph - N/A   Overcast
5:15 AM 54.5 °F 51.1 °F 88% 29.94 in 7.0 mi North 6.9 mph - N/A   Overcast
5:35 AM 54.5 °F 51.1 °F 88% 29.95 in 4.0 mi North 6.9 mph - N/A   Overcast
5:55 AM 54.5 °F 51.1 °F 88% 29.95 in 4.0 mi North 8.1 mph - N/A   Overcast
6:15 AM 54.5 °F 51.1 °F 88% 29.95 in 4.0 mi North 6.9 mph - N/A   Overcast
6:35 AM 54.1 °F 50.9 °F 89% 29.95 in 5.0 mi NNE 9.2 mph - N/A   Overcast
6:55 AM 54.3 °F 50.9 °F 88% 29.96 in 7.0 mi North 8.1 mph - N/A   Overcast
7:15 AM 53.8 °F 50.4 °F 88% 29.97 in 7.0 mi North 6.9 mph - N/A   Overcast
7:35 AM 54.1 °F 50.9 °F 89% 29.98 in 5.0 mi North 5.8 mph - N/A   Overcast
7:55 AM 53.8 °F 50.4 °F 88% 29.99 in 4.0 mi North 6.9 mph - N/A   Overcast
8:15 AM 53.8 °F 50.5 °F 89% 29.99 in 2.0 mi North 5.8 mph - N/A   Overcast
8:35 AM 54.1 °F 50.9 °F 89% 29.99 in 1.8 mi North 5.8 mph - N/A   Overcast
8:55 AM 54.0 °F 50.9 °F 89% 29.99 in 1.5 mi North 6.9 mph - N/A   Overcast
9:15 AM 54.1 °F 50.9 °F 89% 29.97 in 1.5 mi NNE 8.1 mph - N/A   Overcast
9:35 AM 54.5 °F 51.3 °F 89% 29.97 in 1.5 mi NNE 8.1 mph - N/A   Overcast
9:55 AM 54.9 °F 51.8 °F 89% 29.97 in 2.0 mi NE 8.1 mph - N/A   Overcast
10:15 AM 55.4 °F 52.2 °F 89% 29.97 in 2.5 mi NE 4.6 mph - N/A   Overcast
10:35 AM 55.9 °F 52.7 °F 89% 29.97 in 2.0 mi ENE 5.8 mph - N/A   Overcast
10:55 AM 56.5 °F 53.2 °F 89% 29.97 in 2.5 mi NE 5.8 mph - N/A   Overcast
11:15 AM 57.2 °F 54.0 °F 89% 29.99 in 1.2 mi ENE 6.9 mph - N/A   Overcast
11:35 AM 57.9 °F 54.5 °F 88% 29.99 in 1.8 mi ENE 4.6 mph - N/A   Overcast
11:55 AM 58.1 °F 54.7 °F 88% 29.97 in 1.5 mi ENE 8.1 mph - N/A   Drizzle
12:15 PM 58.1 °F 54.7 °F 88% 29.99 in 1.8 mi ENE 8.1 mph - N/A   Drizzle
12:35 PM 58.1 °F 54.7 °F 88% 29.99 in 1.2 mi ENE 5.8 mph - N/A   Drizzle
12:55 PM 58.5 °F 55.0 °F 88% 29.97 in 2.5 mi ENE 8.1 mph - 0.02 in Rain Rain
1:15 PM 58.3 °F 54.9 °F 88% 29.96 in 7.0 mi ENE 12.7 mph - 0.01 in Rain Light Rain
1:35 PM 58.1 °F 54.7 °F 88% 29.95 in 10.0 mi East 11.5 mph - 0.02 in Rain Light Rain
1:55 PM 58.1 °F 54.5 °F 88% 29.94 in 7.0 mi East 9.2 mph - 0.05 in Rain Rain
2:15 PM 58.1 °F 54.5 °F 88% 29.92 in 10.0 mi East 12.7 mph 16.1 mph 0.01 in Rain Light Rain
2:35 PM 58.1 °F 54.5 °F 88% 29.92 in 10.0 mi East 9.2 mph - 0.02 in Rain Light Rain
2:55 PM 58.8 °F 55.0 °F 87% 29.92 in 10.0 mi East 11.5 mph 17.3 mph 0.03 in Rain Rain
3:15 PM 58.5 °F 54.5 °F 87% 29.94 in 10.0 mi East 4.6 mph - 0.02 in Rain Heavy Rain
3:35 PM 58.3 °F 54.5 °F 87% 29.93 in 5.0 mi East 8.1 mph - 0.20 in Rain Heavy Rain
3:55 PM 58.6 °F 54.9 °F 87% 29.93 in 10.0 mi East 4.6 mph - 0.22 in Rain Light Rain
4:35 PM 59.2 °F 55.4 °F 87% 29.93 in 3.0 mi East 6.9 mph - 0.01 in Rain Rain
4:55 PM 59.0 °F 55.4 °F 88% 29.93 in 3.0 mi East 6.9 mph - 0.01 in   Light Drizzle
5:15 PM 58.6 °F 54.9 °F 87% 29.92 in 4.0 mi East 9.2 mph - N/A   Light Drizzle
5:35 PM 58.5 °F 54.7 °F 87% 29.91 in 7.0 mi East 8.1 mph - N/A   Overcast
5:55 PM 58.1 °F 54.5 °F 88% 29.92 in 5.0 mi East 8.1 mph - 0.01 in   Light Drizzle
6:15 PM 58.1 °F 54.5 °F 88% 29.92 in 7.0 mi East 5.8 mph - N/A Rain Light Rain
6:35 PM 58.1 °F 54.3 °F 87% 29.92 in 5.0 mi East 6.9 mph - N/A Rain Rain
6:55 PM 58.1 °F 54.5 °F 88% 29.91 in 7.0 mi East 5.8 mph - 0.01 in Rain Light Rain
7:15 PM 58.1 °F 54.5 °F 88% 29.93 in 7.0 mi Calm Calm - N/A   Light Drizzle
7:35 PM 58.1 °F 54.5 °F 88% 29.93 in 2.5 mi East 4.6 mph - 0.03 in Rain Rain
7:55 PM 57.9 °F 54.5 °F 88% 29.92 in 4.0 mi East 4.6 mph - 0.04 in   Light Drizzle
8:15 PM 57.7 °F 54.5 °F 89% 29.92 in 7.0 mi East 5.8 mph - N/A   Light Drizzle
8:35 PM 58.1 °F 54.5 °F 88% 29.92 in 10.0 mi East 3.5 mph - N/A   Overcast
8:55 PM 57.7 °F 54.5 °F 89% 29.92 in 4.0 mi East 4.6 mph - N/A   Overcast
9:15 PM 58.1 °F 54.5 °F 88% 29.92 in 4.0 mi East 3.5 mph - N/A   Overcast
9:35 PM 57.9 °F 54.5 °F 88% 29.93 in 1.8 mi Calm Calm - N/A   Overcast
9:55 PM 58.1 °F 54.5 °F 88% 29.94 in 1.5 mi Calm Calm - 0.01 in   Drizzle
10:15 PM 58.1 °F 54.7 °F 88% 29.95 in 1.8 mi WSW 3.5 mph - N/A   Heavy Drizzle
10:35 PM 58.1 °F 54.5 °F 88% 29.96 in 2.5 mi West 10.4 mph - 0.01 in   Drizzle
10:55 PM 57.2 °F 53.6 °F 88% 29.96 in 2.5 mi West 13.8 mph 19.6 mph 0.01 in   Drizzle
11:15 PM 56.5 °F 52.9 °F 88% 29.96 in 10.0 mi West 9.2 mph - N/A   Overcast
11:35 PM 56.3 °F 52.7 °F 88% 29.96 in 10.0 mi West 10.4 mph - N/A   Overcast
11:55 PM 56.3 °F 52.3 °F 87% 29.97 in 10.0 mi West 10.4 mph - N/A   Overcast